Location: Unspecified
(0.0000°N, 0.0000°E)
Time: 12:43:48
(UTC+02:00)

BREEZE-M DEB (TANK) - Visible Passes

Search period start: 26 May 2016 00:00
Search period end: 05 June 2016 00:00
Orbit: 344 x 16331 km, 49.4° (Epoch: 24 May)

Date Brightness Start Highest point End Pass type
(mag) Time Alt. Az. Time Alt. Az. Time Alt. Az.
26 May 8.5 05:33:17 10° NW 06:14:04 13° N 06:27:14 10° NNE visible
26 May 8.3 22:11:39 10° SW 23:06:21 83° WNW 01:42:45 10° NNE visible
27 May 8.2 06:53:49 10° NNW 07:08:02 13° N 07:15:24 10° NNE visible
27 May 7.5 17:58:08 10° SE 18:27:04 14° ESE 19:39:43 10° ENE visible
27 May 8.5 22:55:19 10° SW 23:54:28 67° WNW 02:28:42 10° NNE visible
28 May 7.7 07:42:52 10° NNW 07:56:03 16° NNE 08:02:08 10° NE visible
28 May 7.6 18:31:51 10° SSE 19:11:06 27° E 21:10:42 10° NE visible
28 May 8.7 23:40:23 10° SW 00:43:52 52° WNW 03:14:12 10° NNE visible
29 May 7.6 19:11:17 10° S 19:52:38 41° ESE 22:12:11 10° NE visible
30 May 9.0 00:27:54 10° WSW 01:34:32 38° WNW 03:59:37 10° NNE visible
30 May 7.7 19:52:08 10° SSW 20:34:39 57° ESE 23:05:45 10° NE visible
31 May 8.9 01:20:47 10° WSW 02:27:42 25° WNW 04:45:25 10° NNE visible
31 May 7.9 20:33:45 10° SSW 21:18:20 74° ESE 23:55:41 10° NNE visible
01 Jun 8.6 02:32:46 10° W 03:31:53 14° WNW 05:32:19 10° NNE visible
01 Jun 8.2 21:16:02 10° SSW 22:04:07 89° WNW 00:43:39 10° NNE visible
02 Jun 8.3 05:43:25 10° NNW 06:09:41 14° N 06:20:09 10° NNE visible
02 Jun 8.4 21:59:07 10° SW 22:51:52 73° WNW 01:30:29 10° NNE visible
03 Jun 7.9 06:40:45 10° NNW 06:59:15 17° NNE 07:06:52 10° NE visible
03 Jun 7.5 17:38:53 10° SSE 18:10:47 21° ESE 19:52:42 10° NE visible
03 Jun 8.6 22:43:19 10° SW 23:41:14 58° WNW 02:16:42 10° NNE visible
04 Jun 7.2 07:28:46 10° NNW 07:45:37 22° NNE 07:51:40 10° ENE visible
04 Jun 7.5 18:16:57 10° S 18:52:48 35° ESE 21:04:04 10° NE visible
